Regional Weather Roundup
Issued by NWS Columbia, SC

Home | Current Version | Previous Version | Text Only | Print | Product List | Glossary On
Versions: 1 2 3 4 5 6 7 8 9 10 11 12 13 14 15 16 17 18 19 20 21 22 23 24 25 26 27 28 29 30 31 32 33 34 35 36 37 38 39 40 41 42 43 44 45 46 47 48 49 50
000
ASUS42 KCAE 011010
RWRCAE
REGIONAL WEATHER ROUNDUP
NATIONAL WEATHER SERVICE COLUMBIA SC
600 AM EDT FRI AUG 01 2014

NOTE: "FAIR" INDICATES FEW OR NO CLOUDS BELOW 12,000 FEET WITH NO
SIGNIFICANT WEATHER AND/OR OBSTRUCTIONS TO VISIBILITY.

NOT ALL STATIONS ARE QUALITY CONTROLLED BY THE NATIONAL
WEATHER SERVICE. USE DATA WITH CAUTION...ESPECIALLY
DEWPOINT OBSERVATIONS.

SCZ001>056-GAZ040-063>065-077-011100-
...UPSTATE SOUTH CAROLINA...

CITY           SKY/WX    TMP DP  RH WIND       PRES   REMARKS
ANDERSON       LGT RAIN  66  64  93 NE6       30.07S
LIBERTY        CLOUDY    65  32  29 E5        30.08S
SPARTANBURG    HVY RAIN  64  64 100 N10       30.08R
CLEMSON        CLOUDY    68  63  84 NE8       30.09S
GREENVILLE     LGT RAIN  65  63  93 NE10      30.10R
GREENWOOD      LGT RAIN  66  64  93 N8        30.08R
GREER          CLOUDY    64  63  96 N9        30.08R
ROCK HILL      RAIN      67  66  97 NW8       30.08R FOG
CHESTER        CLOUDY    68  68 100 N6        30.06S
LAURENS        HVY RAIN  64 N/A N/A N10G16    30.08S


...CENTRAL SOUTH CAROLINA...

CITY           SKY/WX    TMP DP  RH WIND       PRES   REMARKS
COLUMBIA APT   CLOUDY    73  69  87 N5        30.01S
COLUMBIA OWENS CLOUDY    73  69  87 CALM      30.02S
DARLINGTON     MOCLDY    72  68  88 NE3       30.03F
FLORENCE       CLOUDY    73  71  93 E7        30.01F
MCENTIRE ANGB  CLOUDY    71  71 100 CALM      30.01S FOG
ORANGEBURG     MOCLDY    72  69  90 E3        30.01R
SUMTER SHAW    CLOUDY    72  72 100 E6        29.99F
NEWBERRY       DRIZZLE   64  64 100 N8        30.08R
AIKEN          CLOUDY    70  70 100 N5        30.06R FOG
BARNWELL       CLOUDY    73  72  94 E3        30.01S
MANNING        FAIR      72 N/A N/A CALM      30.00S
CAMDEN         CLOUDY    72  70  94 E6        30.03R FOG
LANCASTER      LGT RAIN  68  68 100 CALM      30.05R
WINNSBORO      LGT RAIN  68  68 100 NE3       30.03S


...EASTERN AND COASTAL SOUTH CAROLINA...

CITY           SKY/WX    TMP DP  RH WIND       PRES   REMARKS
MYRTLE BEACH   CLOUDY    77  72  83 S14       30.00F
N MYRTLE BCH   CLOUDY    78  72  81 S9        30.01R
CONWAY         CLOUDY    72  72 100 CALM      30.01S
MARION         PTSUNNY   72  72 100 NE5       30.02S
HARTSVILLE     CLOUDY    72 N/A N/A E6        30.03F
FLORENCE       CLOUDY    73  71  93 E7        30.01F
DARLINGTON     MOCLDY    72  68  88 NE3       30.03F
CHARLESTON APT MOCLDY    75  72  90 NE3       29.98S
MOUNT PLEASANT FAIR      73  73 100 CALM      29.98S FOG
WALTERBORO     FOG       72 N/A N/A CALM      30.00R VSB 1/2
BEAUFORT         N/A     73  73 100 MISG      29.98R


...EASTERN GEORGIA...

CITY           SKY/WX    TMP DP  RH WIND       PRES   REMARKS
AUGUSTA BUSH F CLOUDY    72  69  90 N6        30.02R
AUGUSTA DANIEL CLOUDY    70  69  97 N9        30.04R FOG
THOMSON        CLOUDY    70  70 100 N6        30.09R
WASHINGTON     HVY RAIN  68 N/A N/A NE3       30.06R
CLAXTON        FOG      N/A N/A N/A CALM      29.98S VSB 1
SYLVANIA       CLOUDY    74  74 100 CALM      30.00S FOG
STATESBORO     FOG       73  73 100 CALM      29.99R VSB 1
SAVANNAH       FOG       75  73  93 CALM      29.98R VSB 1/2


...SOUTHERN NORTH CAROLINA...

CITY           SKY/WX    TMP DP  RH WIND       PRES   REMARKS
CHARLOTTE      LGT RAIN  66  63  90 N15       30.07R
MONROE         CLOUDY    67  65  93 NE9       30.06S
WADESBORO      LGT RAIN  68  66  94 SW7       30.05R
ROCKINGHAM       N/A     72  70  94 E7        30.03S
RUTHERFORDTON  LGT RAIN  64  63  98 N5        30.12S
ASHEVILLE      CLOUDY    63  61  93 CALM      30.15S

$$



USA.gov is the U.S. government's official web portal to all federal, state and local government web resources and services.